Chicago DuPage, IL

1:08 AM CDT on August 19, 2017 (GMT -0500)
Du Page

Weather History for KDPA - January, 2014

Change the Weather History Date:

Saturday, January 18, 2014

  Actual Average Record
Temperature  
Mean Temperature 13 °F 23 °F  
Max Temperature 20 °F 31 °F 42 °F (2013)
Min Temperature 5 °F 15 °F -5 °F (2016)
Degree Days  
Heating Degree Days 52 42  
Month to date heating degree days 875 754  
Since 1 July heating degree days 3661 3181  
Cooling Degree Days 0 0  
Month to date cooling degree days 0 0  
Year to date cooling degree days 0 0  
Moisture  
Dew Point 11 °F    
Average Humidity 85    
Maximum Humidity 92    
Minimum Humidity 73    
Precipitation  
Precipitation 0.01 in 0.03 in 0.06 in (2005)
Month to date precipitation 0.69 0.74  
Year to date precipitation 0.69 0.74  
Sea Level Pressure  
Sea Level Pressure 29.82 in    
Wind  
Wind Speed 7 mph (ESE)    
Max Wind Speed 14 mph    
Max Gust Speed 16 mph    
Visibility 4 miles    
Events Fog , Snow    
T = Trace of Precipitation, MM = Missing Value Source: NWS Daily Summary

Daily Weather History Graph

Daily Weather History Graph

Search for Another Location

Airport or City:

Trip Planner

Search our weather history database for the weather conditions in past years. The results will help you decide how hot, cold, wet, or windy it might be!

Date:

Astronomy

Jan. 18, 2014 Rise Set
Actual Time 7:16 AM CST 4:50 PM CST
Civil Twilight 6:46 AM CST 5:21 PM CST
Nautical Twilight 6:11 AM CST 5:55 PM CST
Astronomical Twilight 5:38 AM CST 6:28 PM CST
Moon 7:35 PM CST (1/18) 8:13 AM CST (1/18)
Length of Visible Light 10h 35m
Length of Day
9h 33m
Waning Gibbous, 94% of the Moon is Illuminated
Jan 18
Waning Gibbous
Jan 23
Last Quarter
Jan 30
New
Feb 6
First Quarter
Feb 14
Full

Hourly Weather History & Observations

Time (CST) Temp. Windchill Dew Point Humidity Pressure Visibility Wind Dir Wind Speed Gust Speed Precip Events Conditions
12:52 AM 9.0 °F -2.2 °F 3.9 °F 80% 29.96 in 10.0 mi SW 6.9 mph - N/A   Mostly Cloudy
1:52 AM 7.0 °F -3.3 °F 3.0 °F 84% 29.95 in 10.0 mi South 5.8 mph - N/A   Clear
2:52 AM 9.0 °F -2.2 °F 5.0 °F 84% 29.96 in 10.0 mi SW 6.9 mph - N/A   Mostly Cloudy
3:52 AM 8.1 °F -2.0 °F 3.9 °F 83% 29.94 in 10.0 mi South 5.8 mph - N/A   Clear
4:52 AM 8.1 °F -0.5 °F 5.0 °F 87% 29.93 in 10.0 mi South 4.6 mph - N/A   Clear
5:52 AM 8.1 °F -2.0 °F 3.9 °F 83% 29.90 in 10.0 mi SSE 5.8 mph - N/A   Clear
6:52 AM 10.0 °F -1.9 °F 6.1 °F 84% 29.89 in 10.0 mi South 8.1 mph - N/A   Mostly Cloudy
7:52 AM 10.9 °F -1.8 °F 8.1 °F 88% 29.87 in 10.0 mi South 9.2 mph - N/A   Overcast
8:52 AM 12.9 °F -0.9 °F 9.0 °F 84% 29.86 in 10.0 mi South 11.5 mph - N/A   Overcast
9:52 AM 15.1 °F 5.2 °F 10.0 °F 80% 29.85 in 10.0 mi SSE 6.9 mph - N/A   Overcast
10:50 AM 17.6 °F 6.4 °F 10.4 °F 73% 29.78 in 1.8 mi SE 9.2 mph - 0.00 in Snow Light Snow
10:51 AM 17.1 °F 5.8 °F 10.9 °F 77% 29.82 in 1.8 mi SSE 9.2 mph - 0.00 in Snow Light Snow
10:59 AM 17.6 °F 6.4 °F 12.2 °F 79% 29.78 in 1.5 mi SSE 9.2 mph - 0.00 in Snow Light Snow
11:14 AM 17.6 °F 7.3 °F 12.2 °F 79% 29.77 in 0.8 mi SSE 8.1 mph - 0.00 in Snow Light Snow
11:52 AM 18.0 °F 6.9 °F 12.9 °F 81% 29.79 in 0.8 mi SSE 9.2 mph - 0.00 in Snow Light Snow
12:04 PM 17.6 °F 5.7 °F 14.0 °F 86% 29.74 in 0.8 mi SE 10.4 mph - 0.00 in Snow Light Snow
12:15 PM 17.6 °F 4.3 °F 14.0 °F 86% 29.74 in 0.8 mi SE 12.7 mph - 0.00 in Snow Light Snow
12:24 PM 17.6 °F 4.3 °F 14.0 °F 86% 29.73 in 0.5 mi SE 12.7 mph - 0.00 in Snow Snow
12:38 PM 17.6 °F 5.0 °F 14.0 °F 86% 29.72 in 1.0 mi SE 11.5 mph - 0.00 in Snow Light Snow
12:52 PM 19.0 °F 6.1 °F 14.0 °F 81% 29.76 in 1.0 mi SSE 12.7 mph - 0.00 in Snow Light Snow
12:59 PM 19.4 °F 9.5 °F 14.0 °F 80% 29.71 in 0.8 mi ESE 8.1 mph - 0.00 in Snow Light Snow
1:16 PM 19.4 °F 6.6 °F 14.0 °F 80% 29.70 in 1.0 mi ESE 12.7 mph - 0.00 in Snow Light Snow
1:24 PM 19.4 °F 9.5 °F 14.0 °F 80% 29.71 in 0.8 mi ESE 8.1 mph - 0.00 in Snow Light Snow
1:43 PM 19.4 °F 8.6 °F 14.0 °F 80% 29.71 in 0.8 mi ESE 9.2 mph - 0.01 in Snow Light Snow
1:52 PM 19.0 °F 8.2 °F 15.1 °F 85% 29.75 in 0.5 mi East 9.2 mph - 0.01 in Fog , Snow Snow
2:22 PM 19.4 °F 9.5 °F 15.8 °F 86% 29.72 in 1.0 mi ESE 8.1 mph - 0.00 in Snow Light Snow
2:52 PM 19.9 °F 10.1 °F 16.0 °F 85% 29.77 in 1.0 mi East 8.1 mph - 0.00 in Snow Light Snow
3:00 PM 19.4 °F 11.5 °F 15.8 °F 86% 29.74 in 0.8 mi East 5.8 mph - 0.00 in Snow Light Snow
3:52 PM 19.9 °F 9.3 °F 15.1 °F 81% 29.81 in 0.8 mi East 9.2 mph - 0.00 in Snow Light Snow
3:59 PM 19.4 °F 11.5 °F 15.8 °F 86% 29.77 in 1.8 mi East 5.8 mph - 0.00 in Snow Light Snow
4:04 PM 19.4 °F 12.8 °F 15.8 °F 86% 29.77 in 2.0 mi East 4.6 mph - 0.00 in Snow Light Snow
4:17 PM 19.4 °F 9.5 °F 15.8 °F 86% 29.77 in 3.0 mi East 8.1 mph - 0.00 in Snow Light Snow
4:52 PM 19.0 °F 11.1 °F 14.0 °F 81% 29.84 in 7.0 mi NNE 5.8 mph - 0.00 in   Mostly Cloudy
5:45 PM 10.4 °F -0.4 °F 8.6 °F 92% 29.82 in 6.0 mi NNE 6.9 mph - N/A   Mostly Cloudy
5:52 PM 12.0 °F 0.5 °F 9.0 °F 88% 29.88 in 6.0 mi North 8.1 mph - N/A   Overcast
6:13 PM 12.2 °F 4.3 °F 8.6 °F 85% 29.82 in 7.0 mi NE 4.6 mph - N/A   Scattered Clouds
6:52 PM 10.9 °F 4.7 °F 8.1 °F 88% 29.86 in 4.0 mi NE 3.5 mph - N/A   Clear
7:39 PM 8.6 °F - 5.0 °F 85% 29.82 in 1.8 mi Calm Calm - N/A   Clear
7:50 PM 8.6 °F 2.0 °F 6.8 °F 92% 29.82 in 0.5 mi NNW 3.5 mph - N/A Fog Light Freezing Fog
7:52 PM 9.0 °F 0.6 °F 7.0 °F 92% 29.87 in 0.2 mi NNW 4.6 mph - N/A Fog Light Freezing Fog
8:01 PM 8.6 °F -3.7 °F 6.8 °F 92% 29.83 in 6.0 mi NNW 8.1 mph - N/A   Clear
8:52 PM 8.1 °F - 5.0 °F 87% 29.88 in 6.0 mi Calm Calm - N/A   Clear
9:38 PM 12.2 °F 2.9 °F 10.4 °F 92% 29.86 in 3.0 mi NNW 5.8 mph - N/A   Mostly Cloudy
9:52 PM 15.1 °F 5.2 °F 12.0 °F 88% 29.90 in 3.0 mi NW 6.9 mph - N/A   Mostly Cloudy
9:59 PM 15.8 °F 6.1 °F 12.2 °F 86% 29.86 in 3.0 mi NNW 6.9 mph - N/A   Overcast
10:06 PM 15.8 °F 5.1 °F 12.2 °F 86% 29.86 in 2.5 mi NNW 8.1 mph - N/A   Overcast
10:18 PM 15.8 °F 6.1 °F 12.2 °F 86% 29.86 in 1.0 mi NW 6.9 mph - N/A   Overcast
10:37 PM 12.2 °F 1.7 °F 10.4 °F 92% 29.86 in 3.0 mi NW 6.9 mph - N/A   Mostly Cloudy
10:48 PM 12.2 °F 4.3 °F 8.6 °F 85% 29.85 in 6.0 mi WNW 4.6 mph - N/A   Clear
10:52 PM 12.0 °F 4.1 °F 9.0 °F 88% 29.89 in 6.0 mi NW 4.6 mph - N/A   Clear
11:52 PM 7.0 °F -4.5 °F 3.9 °F 87% 29.88 in 5.0 mi WNW 6.9 mph - N/A   Clear